Location: Champs
(48.8539°N, 2.6040°E)
Time: 23:43:08
(UTC+00:00)

DMSP 5D-2 F13 DEB - Visible Passes

Search period start: 10 August 2022 00:00
Search period end: 20 August 2022 00:00
Orbit: 716 x 774 km, 98.8° (Epoch: 09 August)

Date Brightness Start Highest point End Pass type
(mag) Time Alt. Az. Time Alt. Az. Time Alt. Az.
10 Aug ? 21:14:47 10° E 21:17:14 14° NE 21:19:42 10° NNE visible
10 Aug ? 22:54:17 65° ESE 22:54:54 73° ENE 23:00:02 10° NNW visible
11 Aug ? 00:34:04 17° W 00:34:04 17° W 00:37:22 10° NW visible
11 Aug ? 22:11:14 29° E 22:12:31 34° ENE 22:17:06 10° N visible
11 Aug ? 23:51:01 39° W 23:51:01 39° W 23:55:48 10° NNW visible
12 Aug ? 21:28:11 13° E 21:30:24 17° NE 21:33:35 10° NNE visible
12 Aug ? 23:07:58 81° S 23:08:14 88° WSW 23:13:25 10° NNW visible
13 Aug ? 00:47:44 13° W 00:47:44 13° W 00:50:00 10° WNW visible
13 Aug ? 22:24:54 39° E 22:25:45 42° ENE 22:30:35 10° N visible
14 Aug ? 00:04:41 30° W 00:04:41 30° W 00:08:57 10° NNW visible
14 Aug ? 21:41:49 18° E 21:43:31 21° ENE 21:47:16 10° N visible
14 Aug ? 23:21:35 70° W 23:21:35 70° W 23:26:42 10° NNW visible
15 Aug ? 21:00:56 10° NE 21:01:32 10° NE 21:02:08 10° NE visible
15 Aug ? 22:38:30 51° E 22:38:57 53° ENE 22:43:57 10° N visible
16 Aug ? 00:18:16 24° W 00:18:16 24° W 00:21:56 10° NW visible
16 Aug ? 21:55:23 23° E 21:56:37 25° ENE 22:00:46 10° N visible
16 Aug ? 23:35:09 53° W 23:35:09 53° W 23:39:52 10° NNW visible
17 Aug ? 21:12:20 10° ENE 21:14:30 13° NE 21:16:42 10° NNE visible
17 Aug ? 22:52:02 68° ENE 22:52:07 68° ENE 22:57:14 10° N visible
18 Aug ? 00:31:48 19° W 00:31:48 19° W 00:34:44 10° NW visible
18 Aug ? 22:08:53 30° E 22:09:39 31° ENE 22:14:09 10° N visible
18 Aug ? 23:48:40 41° W 23:48:40 41° W 23:52:56 10° NNW visible
19 Aug ? 21:25:44 14° ENE 21:27:26 16° NE 21:30:25 10° NNE visible
19 Aug ? 23:05:31 79° N 23:05:31 79° N 23:10:24 10° NNW visible
